Location: Canazei
(46.4667°N, 11.7667°E)
Time: 23:51:08
(UTC+00:00)

Envisat - Pass Details

Date: 02 October 2021
Orbit: 764 x 766 km, 98.2° (Epoch: 20 October)

Event Time Altitude Azimuth Distance (km) Brightness Sun altitude
Rises 02:57:11 0° 31° (NNE) 3,241 7.0 -23.8°
Reaches altitude 10° 03:00:47 10° 58° (ENE) 2,308 6.5 -23.2°
Maximum altitude 03:03:14 14° 87° (E) 2,067 6.2 -22.8°
Drops below altitude 10° 03:05:42 10° 117° (ESE) 2,299 6.0 -22.4°
Sets 03:09:15 0° 143° (SE) 3,218 6.5 -21.8°
